User: anonymous   Login
Location: Fauquembergues
(50.6005°N, 2.0987°E)
Time: 17:00:45
(UTC+00:00)
Language:

Cosmos 1271 Rocket - Orbit

View from above orbital plane
View from above orbital plane
View from above satellite
View from above satellite

Ground track
Ground track

The orbit data is extracted from the following two-line orbital elements,

1 12465U 81046B   20270.93922105 +.00000025 +00000-0 -58275-7 0  9991
2 12465 081.2397 087.5532 0032936 276.7815 082.9665 15.14685506135645
Epoch (UTC): 26 September 2020 22:32:28
Eccentricity: 0.0032936
inclination: 81.2397°
perigee height: 499 km
apogee height: 544 km
right ascension of ascending node: 87.5532°
argument of perigee: 276.7815°
revolutions per day: 15.14685506
mean anomaly at epoch: 82.9665°
orbit number at epoch: 13564

The dashed part of the orbit path shows where the satellite is in the earth's shadow,  

DLR